This is the latest recevied weather packets stored in our database for station/object HP3ICC-24. If no packets are shown the sender has not sent any weather packets the latest 10 day(s).
| Time | Temp. | Humidity | Pressure | Rain* | Wind** | Luminosity | Snow |
|---|---|---|---|---|---|---|---|
| 1777911738 | 22.78° C | 63% | 1013 hPa | 0 mm | - | - | - |
| 1777910598 | 22.78° C | 61% | 1013 hPa | 0 mm | - | - | - |
| 1777910538 | 22.78° C | 61% | 1013 hPa | 0 mm | - | - | - |
| 1777909397 | 22.78° C | 62% | 1013 hPa | 0 mm | - | - | - |
| 1777909337 | 22.78° C | 62% | 1013 hPa | 0 mm | - | - | - |
| 1777908196 | 21.67° C | 69% | 1013 hPa | 0 mm | - | - | - |
| 1777908136 | 21.67° C | 69% | 1013 hPa | 0 mm | - | - | - |
| 1777906995 | 21.67° C | 65% | 1013 hPa | 0 mm | - | - | - |
| 1777906935 | 21.67° C | 65% | 1013 hPa | 0 mm | - | - | - |
| 1777905795 | 20.56° C | 72% | 1013 hPa | 0 mm | - | - | - |
| 1777905734 | 20.56° C | 72% | 1013 hPa | 0 mm | - | - | - |
| 1777904594 | 20.56° C | 72% | 1013 hPa | 0 mm | - | - | - |
| 1777904534 | 20.56° C | 72% | 1013 hPa | 0 mm | - | - | - |
| 1777903394 | 20.56° C | 72% | 1014 hPa | 0 mm | - | - | - |
| 1777903333 | 20.56° C | 72% | 1014 hPa | 0 mm | - | - | - |
| 1777902193 | 20.56° C | 72% | 1013 hPa | 0 mm | - | - | - |
| 1777902133 | 20.56° C | 72% | 1013 hPa | 0 mm | - | - | - |
| 1777900993 | 17.78° C | 84% | 1012 hPa | 0 mm | - | - | - |
| 1777900933 | 17.78° C | 84% | 1012 hPa | 0 mm | - | - | - |
| 1777899792 | 18.33° C | 84% | 1013 hPa | 0 mm | - | - | - |
| 1777898592 | 16.11° C | 77% | 1013 hPa | 0 mm | - | - | - |
| 1777898532 | 16.11° C | 77% | 1013 hPa | 0 mm | - | - | - |
| 1777897391 | 16.11° C | 77% | 1011 hPa | 0 mm | - | - | - |
| 1777897331 | 16.11° C | 77% | 1011 hPa | 0 mm | - | - | - |
| 1777896191 | 16.11° C | 77% | 1013 hPa | 0 mm | - | - | - |
* Rain latest hour (hover to see other rain measurements)
** Current wind speed in m/s (hover to see current wind gust speed)